Flag for U.S.A. Weather past 2 weeks in Davenport, Iowa, U.S.A.

Now
78 °F

Sunny.


Feels Like: 80 °F
Forecast: 56 / 81 °F
Wind: 6 mph from West

Location: Davenport Municipal Airport

Current Time: Jul 4, 2015 at 2:53:17 PM

Latest Report: Jul 4, 2015 at 1:52 PM


Visibility: 10 mi

Pressure: 30.01 "Hg

Humidity: 54%

Dew point: 60 °F

Location of DavenportLocation

Historic Weather in Davenport — Graph

°F

Davenport temperature yesterday

Maximum temperature yesterday: 78 °F (at 3:52 PM)
Minimum temperature yesterday: 57 °F (at 4:52 AM)
Average temperature yesterday: 67 °F

Past Weeks' High & Low Weather Summary

 TemperatureHumidityPressure
High84 °F (Jun 20, 4:52 PM)97% (Jun 21, 5:52 AM)30.18 "Hg (Jun 21, 5:52 AM)
Low54 °F (Jul 2, 5:52 AM)44% (Jun 23, 3:52 PM)29.71 "Hg (Jun 22, 6:52 PM)
Average69 °F79%29.94 "Hg
* Reported Jun 19 1:52 PM — Jul 4 1:52 PM, Davenport, Weather by CustomWeather, © 2015

Note: Actual official high and low records may vary slightly from our data, if they occured in-between our weather recording intervals... More about our weather records

Advertising

Davenport weather history for previous 24 hours

 ConditionsComfort  
Time TempWeatherWind HumidityBarometerVisibility
1:52 PM
Sat, Jul 4
78 °FSunny.6 mph54%30.01 "Hg10 mi
12:52 PM77 °FSunny.8 mph60%30.01 "Hg10 mi
11:52 AM76 °FSunny.5 mph58%30.01 "Hg10 mi
10:52 AM74 °FSunny.5 mph60%30.01 "Hg10 mi
9:52 AM72 °FSunny.5 mph61%30.01 "Hg10 mi
8:52 AM68 °FSunny.No wind73%30.01 "Hg10 mi
7:52 AM64 °FSunny.3 mph84%30.00 "Hg9 mi
6:52 AM58 °FFog.No wind93%29.99 "Hg5 mi
5:52 AM55 °FFog.No wind93%29.97 "Hg4 mi
4:52 AM56 °FFog.3 mph93%29.96 "Hg2 mi
3:52 AM56 °FFog.No wind93%29.97 "Hg5 mi
2:52 AM56 °FFog.No wind93%29.97 "Hg6 mi
1:52 AM57 °FClear.No wind93%29.97 "Hg8 mi
12:52 AM58 °FClear.No wind93%29.97 "Hg10 mi
11:52 PM
Fri, Jul 3
61 °FClear.No wind87%29.96 "Hg10 mi
10:52 PM63 °FClear.3 mph87%29.95 "Hg10 mi
9:52 PM65 °FClear.5 mph85%29.94 "Hg10 mi
8:52 PM67 °FSunny.5 mph87%29.92 "Hg10 mi
7:52 PM71 °FSunny.No wind76%29.92 "Hg10 mi
6:52 PM75 °FSunny.5 mph55%29.93 "Hg10 mi
5:52 PM76 °FSunny.5 mph52%29.92 "Hg10 mi
4:52 PM77 °FSunny.5 mph54%29.93 "Hg10 mi
3:52 PM78 °FSunny.No wind48%29.94 "Hg10 mi
2:52 PM76 °FSunny.3 mph52%29.95 "Hg10 mi
Weather by CustomWeather, © 2015

See weather overviewHow to use our weather pages